« Back
NWS Peachtree City, Ga » Text Product » GA Regional Weather Roundup


Printer-friendly Version
Current Version              Previous Versions:   1  2  3  4  5  6  7  8  9  

Regional Weather Roundup

053
ASUS42 KFFC 250803
RWRGA
WEATHER ROUNDUP FOR GEORGIA
NATIONAL WEATHER SERVICE PEACHTREE CITY GA
400 AM EDT THU AUG 25 2016

NOTE: "FAIR" INDICATES FEW OR NO CLOUDS BELOW 12,000 FEET WITH NO
SIGNIFICANT WEATHER AND/OR OBSTRUCTIONS TO VISIBILITY.

* = USE WITH CAUTION. THE STATIONS MARKED WITH AN ASTERISK MAY NOT
REPORT WEATHER SUCH AS PRECIPITATION, FOG, OR THUNDER AND ARE NOT
QUALITY CONTROLLED BY NWS.

THE REMARK "TC" DENOTES TEMPERATURE READING IN DEGREES CELSIUS.

GAZ001>058-250900-
NORTH GEORGIA

CITY           SKY/WX    TMP DP  RH WIND       PRES   REMARKS
ATLANTA        CLEAR     73  71  93 E5        30.18R
ATHENS         CLEAR     70  69  97 CALM      30.18S FOG
CHAMBLEE       CLEAR     73  69  87 CALM      30.19R
PEACHTREE CITY CLEAR     70  70 100 CALM      30.18S FOG
ROME           CLEAR     73  70  90 CALM      30.16S
WEST ATLANTA   CLEAR     71  69  93 CALM      30.17S
GAINESVILLE    CLEAR     71  69  93 MISG      30.22S
CARTERSVILLE   CLEAR     71  70  96 CALM      30.18R


CITY           SKY/WX    TMP DP  RH WIND       PRES   REMARKS
DALTON*        CLEAR     72  72 100 CALM      30.17S
CANTON*        CLEAR     70  68  94 CALM      30.21R
BLAIRSVILLE*   FOG      N/A N/A N/A MISG      30.24R VSB<1/4
$$

GAZ059>098-102>109-250900-
CENTRAL GEORGIA

CITY           SKY/WX    TMP DP  RH WIND       PRES   REMARKS
AUGUSTA-BUSH   CLEAR     70  68  93 CALM      30.14F
AUGUSTA-DANIEL CLEAR     75  67  76 SE3       30.17S
COLUMBUS       CLEAR     75  70  84 E5        30.14S
MACON          CLEAR     71  68  90 CALM      30.15S
ROBINS AFB     CLEAR     71  69  93 CALM      30.14S


CITY           SKY/WX    TMP DP  RH WIND       PRES   REMARKS
LAGRANGE*      CLEAR     75  75 100 CALM      30.15S
MILLEDGEVILLE* CLEAR     72  72 100 CALM      30.17S
$$

GAZ099>101-110>166-250900-
SOUTH GEORGIA

CITY           SKY/WX    TMP DP  RH WIND       PRES   REMARKS
SAVANNAH       CLEAR     71  66  84 CALM      30.13F
VALDOSTA       PTCLDY    71  71 100 NE5       30.11F
ALMA           CLEAR     69  67  93 CALM      30.12F
ST SIMONS      CLEAR     81  65  58 NE10      30.09F
FT STEWART     CLEAR     69  66  91 CALM      30.10F
ALBANY         CLEAR     74  69  85 E5        30.14S
HUNTER AFB     CLEAR     72  71  94 CALM      30.09F
MOODY AFB      PTCLDY    71  69  93 NE6       30.11S
BRUNSWICK      CLEAR     72  72 100 CALM      30.11F


CITY           SKY/WX    TMP DP  RH WIND       PRES   REMARKS
BAINBRIDGE*    CLEAR     73  70  88 CALM      30.11S
MOULTRIE*      CLEAR     73  70  88 CALM      30.13S
VIDALIA*       CLEAR     72  72 100 CALM      30.14F
WAYCROSS*        N/A     73  72  99 CALM      30.12S
DOUGLAS*       PTCLDY    72  68  88 CALM      30.14F
$$




USA.gov is the U.S. government's official web portal to all federal, state and local government web resources and services.